When you browse on this site, cookies collect data to enhance your experience and personalize the content and advertising you see.
Visit our Privacy Policy to learn more. By continuing to use the site, you agree to this use of cookies and data.
  • In Hungary
  • List of Countries
  • For 7 days
  • Water Temperature
  • Satellite Maps
  • Weather Map
  • News
  • Weather Widgets
  • user-avatar
    Login

    Hourly Weather San Pedro Sula

    Today, 16 July, Tuesday

    Time Temperature Precipitation Wind Pressure Humidity
    00:00 +26°C° 0.5 mm 1 mps 745 mmHg 96%
    01:00 +25°C° 0.1 mm 1 mps 745 mmHg 96%
    02:00 +25°C° 0.1 mm 1 mps 745 mmHg 96%
    03:00 +25°C° 0.1 mm 1 mps 744 mmHg 96%
    04:00 +25°C° 0 mm 1 mps 744 mmHg 95%
    05:00 +25°C° 0 mm 1 mps 745 mmHg 95%
    06:00 +25°C° 0 mm 1 mps 745 mmHg 94%
    07:00 +27°C° 0 mm 1 mps 745 mmHg 85%
    08:00 +29°C° 0 mm 1 mps 746 mmHg 76%
    09:00 +31°C° 0 mm 1 mps 746 mmHg 67%
    10:00 +32°C° 0 mm 1 mps 746 mmHg 62%
    11:00 +33°C° 0 mm 1 mps 745 mmHg 57%
    12:00 +35°C° 0 mm 2 mps 745 mmHg 52%
    13:00 +35°C° 0 mm 2 mps 745 mmHg 53%
    14:00 +35°C° 0 mm 2 mps 744 mmHg 54%
    15:00 +35°C° 0 mm 3 mps 744 mmHg 56%
    16:00 +32°C° 0.3 mm 2 mps 744 mmHg 64%
    17:00 +30°C° 0.3 mm 2 mps 744 mmHg 73%
    18:00 +28°C° 0.3 mm 2 mps 744 mmHg 82%
    19:00 +28°C° 0.1 mm 2 mps 744 mmHg 86%
    20:00 +27°C° 0.1 mm 2 mps 745 mmHg 89%
    21:00 +26°C° 0.1 mm 1 mps 745 mmHg 93%
    22:00 +26°C° 0.4 mm 1 mps 745 mmHg 94%
    23:00 +26°C° 0.4 mm 1 mps 745 mmHg 95%

    Tomorrow, 17 July, Wednesday

    Time Temperature Precipitation Wind Pressure Humidity
    00:00 +26°C° 0.4 mm 1 mps 745 mmHg 95%
    01:00 +26°C° 0.1 mm 1 mps 745 mmHg 96%
    02:00 +25°C° 0.1 mm 1 mps 745 mmHg 96%
    03:00 +25°C° 0.1 mm 1 mps 744 mmHg 96%
    04:00 +25°C° 0 mm 1 mps 744 mmHg 96%
    05:00 +25°C° 0 mm 1 mps 745 mmHg 96%
    06:00 +25°C° 0 mm 1 mps 745 mmHg 95%
    07:00 +27°C° 0.2 mm 1 mps 745 mmHg 88%
    08:00 +29°C° 0.2 mm 1 mps 745 mmHg 81%
    09:00 +30°C° 0.2 mm 1 mps 746 mmHg 74%
    10:00 +31°C° 0.2 mm 1 mps 745 mmHg 69%
    11:00 +32°C° 0.2 mm 1 mps 745 mmHg 64%
    12:00 +33°C° 0.2 mm 1 mps 745 mmHg 60%
    13:00 +32°C° 1.4 mm 2 mps 744 mmHg 66%
    14:00 +32°C° 1.4 mm 2 mps 744 mmHg 73%
    15:00 +31°C° 1.4 mm 2 mps 743 mmHg 79%
    16:00 +30°C° 2.2 mm 2 mps 744 mmHg 83%
    17:00 +29°C° 2.2 mm 2 mps 744 mmHg 87%
    18:00 +27°C° 2.2 mm 2 mps 744 mmHg 91%
    19:00 +27°C° 1 mm 2 mps 744 mmHg 92%
    20:00 +26°C° 1 mm 1 mps 745 mmHg 93%
    21:00 +26°C° 1 mm 1 mps 745 mmHg 95%
    22:00 +26°C° 0.3 mm 1 mps 745 mmHg 95%
    23:00 +26°C° 0.3 mm 1 mps 745 mmHg 94%

    Day after tomorrow, 18 July, Thursday

    Time Temperature Precipitation Wind Pressure Humidity
    00:00 +26°C° 0.3 mm 1 mps 745 mmHg 94%
    01:00 +26°C° 0.1 mm 1 mps 745 mmHg 94%
    02:00 +25°C° 0.1 mm 1 mps 744 mmHg 95%
    03:00 +25°C° 0.1 mm 1 mps 744 mmHg 95%
    04:00 +25°C° 0.1 mm 1 mps 744 mmHg 95%
    05:00 +25°C° 0.1 mm 1 mps 744 mmHg 94%
    06:00 +25°C° 0.1 mm 1 mps 744 mmHg 94%
    07:00 +26°C° 0.2 mm 1 mps 745 mmHg 88%
    08:00 +28°C° 0.2 mm 1 mps 745 mmHg 83%
    09:00 +28°C° 0.2 mm 0 mps 746 mmHg 77%
    10:00 +31°C° 0.3 mm 1 mps 745 mmHg 71%
    11:00 +32°C° 0.3 mm 1 mps 745 mmHg 66%
    12:00 +34°C° 0.3 mm 2 mps 745 mmHg 60%
    13:00 +32°C° 0.4 mm 2 mps 744 mmHg 63%
    14:00 +32°C° 0.4 mm 2 mps 744 mmHg 66%
    15:00 +31°C° 0.4 mm 3 mps 743 mmHg 70%
    16:00 +30°C° 0.4 mm 3 mps 743 mmHg 75%
    17:00 +29°C° 0.4 mm 2 mps 744 mmHg 80%
    18:00 +28°C° 0.4 mm 2 mps 744 mmHg 85%
    19:00 +27°C° 0.5 mm 2 mps 744 mmHg 88%
    20:00 +26°C° 0.5 mm 2 mps 745 mmHg 91%
    21:00 +25°C° 0.5 mm 2 mps 746 mmHg 93%
    22:00 +25°C° 0.5 mm 1 mps 745 mmHg 94%
    23:00 +25°C° 0.5 mm 1 mps 745 mmHg 95%

    19 July, Friday

    Time Temperature Precipitation Wind Pressure Humidity
    00:00 +25°C° 0.5 mm 1 mps 745 mmHg 95%
    01:00 +24°C° 0.1 mm 1 mps 745 mmHg 95%
    02:00 +24°C° 0.1 mm 1 mps 744 mmHg 96%
    03:00 +24°C° 0.1 mm 1 mps 744 mmHg 96%
    04:00 +24°C° 0 mm 1 mps 744 mmHg 96%
    05:00 +24°C° 0 mm 1 mps 745 mmHg 95%
    06:00 +22°C° 0 mm 0 mps 745 mmHg 95%
    07:00 +24°C° 0 mm 0 mps 745 mmHg 87%
    08:00 +26°C° 0 mm 0 mps 746 mmHg 80%
    09:00 +28°C° 0 mm 0 mps 746 mmHg 72%
    10:00 +30°C° 0 mm 1 mps 746 mmHg 68%
    11:00 +31°C° 0 mm 1 mps 746 mmHg 63%
    12:00 +32°C° 0 mm 2 mps 745 mmHg 59%
    13:00 +32°C° 0 mm 2 mps 745 mmHg 59%
    14:00 +33°C° 0 mm 3 mps 744 mmHg 58%
    15:00 +33°C° 0 mm 3 mps 744 mmHg 58%
    16:00 +31°C° 0 mm 3 mps 744 mmHg 65%
    17:00 +29°C° 0 mm 2 mps 744 mmHg 72%
    18:00 +28°C° 0 mm 2 mps 744 mmHg 80%
    19:00 +27°C° 0 mm 2 mps 745 mmHg 83%
    20:00 +26°C° 0 mm 1 mps 745 mmHg 87%
    21:00 +25°C° 0 mm 1 mps 746 mmHg 91%
    22:00 +25°C° 0 mm 1 mps 746 mmHg 92%
    23:00 +25°C° 0 mm 1 mps 745 mmHg 93%

    20 July, Saturday

    Time Temperature Precipitation Wind Pressure Humidity
    00:00 +23°C° 0 mm 0 mps 745 mmHg 93%
    01:00 +23°C° 0 mm 0 mps 745 mmHg 93%
    02:00 +23°C° 0 mm 0 mps 744 mmHg 93%
    03:00 +23°C° 0 mm 0 mps 744 mmHg 93%
    04:00 +23°C° 0 mm 0 mps 744 mmHg 93%
    05:00 +25°C° 0 mm 1 mps 744 mmHg 93%
    06:00 +25°C° 0 mm 1 mps 744 mmHg 93%
    07:00 +27°C° 0 mm 1 mps 745 mmHg 85%
    08:00 +29°C° 0 mm 1 mps 745 mmHg 77%
    09:00 +31°C° 0 mm 1 mps 745 mmHg 69%
    10:00 +31°C° 0.4 mm 1 mps 745 mmHg 69%
    11:00 +32°C° 0.4 mm 1 mps 745 mmHg 69%
    12:00 +32°C° 0.4 mm 1 mps 745 mmHg 68%
    13:00 +32°C° 1.1 mm 2 mps 744 mmHg 71%
    14:00 +31°C° 1.1 mm 2 mps 743 mmHg 74%
    15:00 +31°C° 1.1 mm 3 mps 743 mmHg 77%
    16:00 +30°C° 3.3 mm 2 mps 743 mmHg 82%
    17:00 +28°C° 3.3 mm 2 mps 743 mmHg 87%
    18:00 +27°C° 3.3 mm 2 mps 743 mmHg 92%
    19:00 +27°C° 4.2 mm 1 mps 744 mmHg 93%
    20:00 +26°C° 4.2 mm 1 mps 744 mmHg 94%
    21:00 +25°C° 4.2 mm 1 mps 744 mmHg 95%
    22:00 +25°C° 0 mm 1 mps 744 mmHg 94%
    23:00 +25°C° 0 mm 1 mps 745 mmHg 93%

    21 July, Sunday

    Time Temperature Precipitation Wind Pressure Humidity
    00:00 +25°C° 0 mm 1 mps 745 mmHg 92%
    01:00 +24°C° 0 mm 1 mps 744 mmHg 92%
    02:00 +24°C° 0 mm 1 mps 744 mmHg 91%
    03:00 +24°C° 0 mm 1 mps 743 mmHg 91%
    04:00 +24°C° 0 mm 1 mps 743 mmHg 91%
    05:00 +24°C° 0 mm 1 mps 744 mmHg 90%
    06:00 +22°C° 0 mm 0 mps 744 mmHg 90%
    07:00 +24°C° 0 mm 0 mps 744 mmHg 81%
    08:00 +26°C° 0 mm 0 mps 745 mmHg 73%
    09:00 +29°C° 0 mm 0 mps 745 mmHg 64%
    10:00 +32°C° 0 mm 1 mps 745 mmHg 61%
    11:00 +33°C° 0 mm 1 mps 745 mmHg 58%
    12:00 +34°C° 0 mm 1 mps 745 mmHg 54%
    13:00 +34°C° 0.1 mm 2 mps 744 mmHg 57%
    14:00 +34°C° 0.1 mm 2 mps 743 mmHg 60%
    15:00 +34°C° 0.1 mm 3 mps 743 mmHg 62%
    16:00 +31°C° 1 mm 2 mps 743 mmHg 71%
    17:00 +30°C° 1 mm 2 mps 743 mmHg 80%
    18:00 +28°C° 1 mm 2 mps 743 mmHg 88%
    19:00 +27°C° 0.8 mm 2 mps 744 mmHg 90%
    20:00 +27°C° 0.8 mm 2 mps 744 mmHg 92%
    21:00 +26°C° 0.8 mm 1 mps 744 mmHg 95%
    22:00 +26°C° 0.1 mm 1 mps 745 mmHg 95%
    23:00 +26°C° 0.1 mm 1 mps 745 mmHg 96%
    Show more